When you browse on this site, cookies collect data to enhance your experience and personalize the content and advertising you see.
Visit our Privacy Policy to learn more. By continuing to use the site, you agree to this use of cookies and data.
  • în România
  • Lista ţărilor
  • Pe 7 zile
  • Temperatura apei
  • Hartă satelitară
  • Meteo pe hartă
  • Widget-uri
  • user-avatar
    Intrare

    Meteo pe oră la Ajuterique

    Astăzi, 19 Februarie, Marţi

    Timp Temperatura Precipitaţii Vânt Presiune Umiditate
    00:00 +22°C° 0 mm 1 m/s 699 mmHg 64%
    01:00 +21°C° 0 mm 1 m/s 699 mmHg 68%
    02:00 +21°C° 0 mm 1 m/s 699 mmHg 72%
    03:00 +20°C° 0 mm 1 m/s 698 mmHg 76%
    04:00 +20°C° 0 mm 1 m/s 699 mmHg 80%
    05:00 +18°C° 0 mm 0 m/s 699 mmHg 84%
    06:00 +18°C° 0 mm 0 m/s 699 mmHg 88%
    07:00 +23°C° 0 mm 1 m/s 700 mmHg 77%
    08:00 +26°C° 0 mm 1 m/s 701 mmHg 65%
    09:00 +29°C° 0 mm 1 m/s 701 mmHg 54%
    10:00 +31°C° 0 mm 1 m/s 701 mmHg 44%
    11:00 +34°C° 0 mm 2 m/s 701 mmHg 34%
    12:00 +36°C° 0 mm 2 m/s 701 mmHg 24%
    13:00 +36°C° 0 mm 2 m/s 700 mmHg 24%
    14:00 +36°C° 0 mm 2 m/s 699 mmHg 23%
    15:00 +37°C° 0 mm 2 m/s 698 mmHg 22%
    16:00 +34°C° 0 mm 2 m/s 698 mmHg 29%
    17:00 +31°C° 0 mm 2 m/s 698 mmHg 35%
    18:00 +28°C° 0 mm 1 m/s 697 mmHg 42%
    19:00 +26°C° 0 mm 1 m/s 698 mmHg 49%
    20:00 +25°C° 0 mm 1 m/s 698 mmHg 57%
    21:00 +23°C° 0 mm 1 m/s 698 mmHg 65%
    22:00 +23°C° 0 mm 1 m/s 698 mmHg 70%
    23:00 +22°C° 0 mm 1 m/s 698 mmHg 76%

    Mâine, 20 Februarie, Miercuri

    Timp Temperatura Precipitaţii Vânt Presiune Umiditate
    00:00 +21°C° 0 mm 1 m/s 698 mmHg 81%
    01:00 +21°C° 0 mm 1 m/s 698 mmHg 85%
    02:00 +20°C° 0 mm 1 m/s 697 mmHg 88%
    03:00 +20°C° 0 mm 1 m/s 697 mmHg 92%
    04:00 +20°C° 0 mm 1 m/s 697 mmHg 93%
    05:00 +19°C° 0 mm 1 m/s 697 mmHg 94%
    06:00 +19°C° 0 mm 1 m/s 697 mmHg 94%
    07:00 +22°C° 0 mm 1 m/s 698 mmHg 79%
    08:00 +25°C° 0 mm 1 m/s 699 mmHg 64%
    09:00 +28°C° 0 mm 1 m/s 700 mmHg 50%
    10:00 +30°C° 0 mm 1 m/s 699 mmHg 42%
    11:00 +33°C° 0 mm 1 m/s 699 mmHg 35%
    12:00 +35°C° 0 mm 1 m/s 699 mmHg 27%
    13:00 +35°C° 0 mm 1 m/s 698 mmHg 28%
    14:00 +34°C° 0 mm 1 m/s 697 mmHg 29%
    15:00 +34°C° 0 mm 1 m/s 696 mmHg 30%
    16:00 +32°C° 0 mm 1 m/s 696 mmHg 36%
    17:00 +30°C° 0 mm 1 m/s 696 mmHg 42%
    18:00 +27°C° 0 mm 1 m/s 696 mmHg 47%
    19:00 +26°C° 0 mm 1 m/s 697 mmHg 53%
    20:00 +24°C° 0 mm 1 m/s 697 mmHg 58%
    21:00 +23°C° 0 mm 1 m/s 698 mmHg 63%
    22:00 +22°C° 0 mm 1 m/s 698 mmHg 66%
    23:00 +22°C° 0 mm 1 m/s 698 mmHg 69%

    Poimâine, 21 Februarie, Joi

    Timp Temperatura Precipitaţii Vânt Presiune Umiditate
    00:00 +21°C° 0 mm 1 m/s 698 mmHg 72%
    01:00 +21°C° 0 mm 1 m/s 697 mmHg 76%
    02:00 +20°C° 0 mm 1 m/s 697 mmHg 79%
    03:00 +20°C° 0 mm 1 m/s 696 mmHg 82%
    04:00 +19°C° 0 mm 1 m/s 697 mmHg 85%
    05:00 +19°C° 0 mm 1 m/s 697 mmHg 87%
    06:00 +17°C° 0 mm 0 m/s 697 mmHg 90%
    07:00 +22°C° 0 mm 1 m/s 698 mmHg 77%
    08:00 +25°C° 0 mm 1 m/s 699 mmHg 64%
    09:00 +29°C° 0 mm 1 m/s 700 mmHg 51%
    10:00 +31°C° 0 mm 1 m/s 700 mmHg 43%
    11:00 +34°C° 0 mm 2 m/s 699 mmHg 36%
    12:00 +36°C° 0 mm 2 m/s 699 mmHg 28%
    13:00 +36°C° 0 mm 2 m/s 698 mmHg 27%
    14:00 +36°C° 0 mm 2 m/s 698 mmHg 26%
    15:00 +36°C° 0 mm 1 m/s 697 mmHg 25%
    16:00 +33°C° 0 mm 1 m/s 697 mmHg 31%
    17:00 +31°C° 0 mm 1 m/s 697 mmHg 37%
    18:00 +28°C° 0 mm 1 m/s 697 mmHg 43%
    19:00 +27°C° 0.1 mm 1 m/s 697 mmHg 50%
    20:00 +26°C° 0.1 mm 1 m/s 698 mmHg 57%
    21:00 +25°C° 0.1 mm 1 m/s 699 mmHg 64%
    22:00 +25°C° 0.1 mm 1 m/s 698 mmHg 71%
    23:00 +24°C° 0.1 mm 1 m/s 698 mmHg 78%

    22 Februarie, Vineri

    Timp Temperatura Precipitaţii Vânt Presiune Umiditate
    00:00 +23°C° 0.1 mm 1 m/s 698 mmHg 84%
    01:00 +23°C° 0 mm 1 m/s 698 mmHg 87%
    02:00 +22°C° 0 mm 1 m/s 697 mmHg 90%
    03:00 +22°C° 0 mm 1 m/s 697 mmHg 93%
    04:00 +21°C° 0 mm 1 m/s 697 mmHg 94%
    05:00 +21°C° 0 mm 1 m/s 698 mmHg 95%
    06:00 +21°C° 0 mm 1 m/s 698 mmHg 96%
    07:00 +23°C° 0 mm 1 m/s 699 mmHg 85%
    08:00 +25°C° 0 mm 1 m/s 700 mmHg 74%
    09:00 +28°C° 0 mm 2 m/s 701 mmHg 63%
    10:00 +30°C° 0 mm 2 m/s 700 mmHg 54%
    11:00 +32°C° 0 mm 2 m/s 700 mmHg 46%
    12:00 +35°C° 0 mm 2 m/s 700 mmHg 38%
    13:00 +34°C° 0 mm 2 m/s 699 mmHg 40%
    14:00 +32°C° 0 mm 1 m/s 698 mmHg 42%
    15:00 +32°C° 0 mm 1 m/s 697 mmHg 44%
    16:00 +28°C° 0 mm 0 m/s 697 mmHg 49%
    17:00 +27°C° 0 mm 0 m/s 697 mmHg 54%
    18:00 +25°C° 0 mm 0 m/s 698 mmHg 59%
    19:00 +24°C° 0 mm 0 m/s 698 mmHg 64%
    20:00 +23°C° 0 mm 0 m/s 699 mmHg 68%
    21:00 +24°C° 0 mm 1 m/s 699 mmHg 72%
    22:00 +23°C° 0 mm 1 m/s 699 mmHg 76%
    23:00 +23°C° 0 mm 1 m/s 699 mmHg 79%

    23 Februarie, Sâmbătă

    Timp Temperatura Precipitaţii Vânt Presiune Umiditate
    00:00 +22°C° 0 mm 1 m/s 699 mmHg 83%
    01:00 +22°C° 0 mm 1 m/s 698 mmHg 86%
    02:00 +21°C° 0 mm 1 m/s 698 mmHg 90%
    03:00 +21°C° 0 mm 1 m/s 698 mmHg 93%
    04:00 +21°C° 0 mm 1 m/s 698 mmHg 93%
    05:00 +21°C° 0 mm 1 m/s 698 mmHg 94%
    06:00 +20°C° 0 mm 1 m/s 699 mmHg 94%
    07:00 +23°C° 0 mm 1 m/s 699 mmHg 82%
    08:00 +26°C° 0 mm 1 m/s 700 mmHg 70%
    09:00 +28°C° 0 mm 1 m/s 701 mmHg 57%
    10:00 +30°C° 0 mm 2 m/s 701 mmHg 50%
    11:00 +32°C° 0 mm 2 m/s 701 mmHg 43%
    12:00 +35°C° 0 mm 2 m/s 700 mmHg 36%
    13:00 +34°C° 0 mm 1 m/s 700 mmHg 37%
    14:00 +33°C° 0 mm 1 m/s 699 mmHg 39%
    15:00 +32°C° 0 mm 1 m/s 698 mmHg 40%
    16:00 +31°C° 0 mm 1 m/s 698 mmHg 46%
    17:00 +29°C° 0 mm 1 m/s 698 mmHg 51%
    18:00 +28°C° 0 mm 1 m/s 698 mmHg 56%
    19:00 +26°C° 0 mm 1 m/s 698 mmHg 63%
    20:00 +25°C° 0 mm 1 m/s 699 mmHg 69%
    21:00 +24°C° 0 mm 1 m/s 699 mmHg 76%
    22:00 +23°C° 0 mm 1 m/s 699 mmHg 80%
    23:00 +21°C° 0 mm 0 m/s 699 mmHg 84%

    24 Februarie, Duminică

    Timp Temperatura Precipitaţii Vânt Presiune Umiditate
    00:00 +20°C° 0 mm 0 m/s 699 mmHg 88%
    01:00 +22°C° 0 mm 1 m/s 698 mmHg 90%
    02:00 +22°C° 0 mm 1 m/s 698 mmHg 92%
    03:00 +21°C° 0 mm 1 m/s 698 mmHg 94%
    04:00 +21°C° 0 mm 1 m/s 698 mmHg 95%
    05:00 +21°C° 0 mm 1 m/s 698 mmHg 96%
    06:00 +21°C° 0 mm 1 m/s 699 mmHg 96%
    07:00 +23°C° 0 mm 1 m/s 699 mmHg 84%
    08:00 +25°C° 0 mm 1 m/s 700 mmHg 72%
    09:00 +28°C° 0 mm 2 m/s 701 mmHg 60%
    10:00 +29°C° 0 mm 2 m/s 700 mmHg 54%
    11:00 +31°C° 0 mm 2 m/s 700 mmHg 48%
    12:00 +34°C° 0 mm 3 m/s 699 mmHg 42%
    13:00 +34°C° 0 mm 3 m/s 699 mmHg 39%
    14:00 +34°C° 0 mm 3 m/s 698 mmHg 37%
    15:00 +34°C° 0 mm 3 m/s 697 mmHg 35%
    16:00 +31°C° 0 mm 2 m/s 697 mmHg 40%
    17:00 +29°C° 0 mm 2 m/s 697 mmHg 45%
    18:00 +27°C° 0 mm 1 m/s 697 mmHg 50%
    19:00 +26°C° 0 mm 1 m/s 697 mmHg 61%
    20:00 +24°C° 0 mm 1 m/s 698 mmHg 72%
    21:00 +22°C° 0 mm 1 m/s 698 mmHg 83%
    22:00 +22°C° 0 mm 1 m/s 698 mmHg 87%
    23:00 +21°C° 0 mm 1 m/s 698 mmHg 91%
    Arată mai mult